Location: Erp
(42.9417°N, 1.2009°E)
Time: 09:57:35
(UTC+00:00)

NOAA 15 - Pass Details

Date: 12 January 2026
Orbit: 794 x 808 km, 98.5° (Epoch: 18 February)

Event Time Altitude Azimuth Distance (km) Brightness Sun altitude
Rises 18:03:46 0° 158° (SSE) 3,292 7.7 -14.5°
Reaches altitude 10° 18:06:06 10° 156° (SSE) 2,364 6.9 -14.9°
Maximum altitude 18:11:17 70° 73° (ENE) 849 4.5 -15.8°
Drops below altitude 10° 18:16:30 10° 351° (N) 2,374 7.0 -16.8°
Sets 18:18:50 0° 349° (N) 3,307 7.8 -17.2°
